sat.trackr.live / text

‹ back to catalog

SCATSAT 1

NORAD 41790 · 2016-059H

PAYLOAD ACTIVE UNKNOWN

§ Identity

Operator
Country
IND
Launch date
2016-09-26
Launch site
SRILR
Launch vehicle
Mass (kg)
RCS (m²)
1.72

Purposes: earth_obs

External: N2YO · Heavens-Above · Gunter

§ Orbital elements

Epoch: 2026-05-25T03:37:27.827328Z

Period
97.33 min
Inclination
98.1201°
Eccentricity
0.0053743
Mean motion
14.79469326 rev/d
Perigee alt
593.3 km
Apogee alt
668.7 km
Semi-major
7,009.1 km
B*
1.1561e-4
RAAN
208.6789°
Arg perigee
323.5100°
Mean anomaly
36.2453°
Rev number
9,818

§ Raw data

SCATSAT 11 41790U 16059H   26145.15101652  .00000827  00000+0  11561-3 0  99942 41790  98.1201 208.6789 0053743 323.5100  36.2453 14.79469326 98180

JSON: /api/v1/satellites/41790 · /tle

For live sub-satellite position, see the globe view (requires WebGL).

§ Visibility from observer

Set your observer location to see the next 7 days of passes ≥ 10°. The values pass through the URL so the page stays shareable.

No JS? Fill the form by hand. The geolocation button needs JavaScript.